Spokane Felts, WA
on Saturday, January 12, 2013

Saturday
Previous Day Next Day
Daily Summary
 ActualAverageRecord
Temperature
Mean Temperature °F 31°F  
Max Temperature 24°F 36°F 46°F (2002)
Min Temperature 14°F 26°F 0°F (1998)
Degree Days
Heating Degree Days 46 34  
Month to date heating degree days 433 417  
Since 1 July heating degree days 2601 3086  
Cooling Degree Days 0 0  
Month to date cooling degree days 0 0  
Year to date cooling degree days 0 0  
Moisture
Dew Point 15°F   
Average Humidity 78    
Maximum Humidity 84    
Minimum Humidity 71    
Precipitation
Precipitation 0.00 in 0.07 in 0.38 in (2011)
Month to date precipitation 0.86 0.83  
Year to date precipitation 0.86 0.83  
Wind
Wind Speed 2 mph   
Max Wind Speed 10 mph   
Max Gust Speed 13 mph   
Visibility 9 miles   
Events     

Key: T is trace of precipitation, MM is missing value
Source: NWS Daily Summary
Time(PST)TemperatureDew PointHumidity Pressure Visibility Wind DirectionWind SpeedGust SpeedPrecipitationEvents Conditions
12:02 AM 17.6°F 12.2°F 79% 30.21 in 10.0 miles Calm Calm - N/A   Mostly Cloudy
12:53 AM 19.9°F 16.0°F 85% 30.29 in 10.0 miles Variable 3.5 mph - N/A   Overcast
1:01 AM 21.2°F 15.8°F 80% 30.21 in 10.0 miles SSW 3.5 mph - N/A   Overcast
1:53 AM 21.0°F 17.1°F 85% 30.29 in 10.0 miles Calm Calm - N/A   Overcast
2:53 AM 21.0°F 16.0°F 81% 30.29 in 10.0 miles ENE 3.5 mph - N/A   Overcast
3:53 AM 21.9°F 16.0°F 78% 30.27 in 10.0 miles Calm Calm - N/A   Overcast
4:53 AM 21.9°F 17.1°F 82% 30.28 in 10.0 miles Calm Calm - N/A   Overcast
5:53 AM 23.0°F 17.1°F 78% 30.29 in 10.0 miles SW 5.8 mph - N/A   Overcast
6:53 AM 23.0°F 18.0°F 81% 30.30 in 10.0 miles WNW 4.6 mph - N/A   Overcast
7:53 AM 23.0°F 18.0°F 81% 30.31 in 10.0 miles WSW 5.8 mph - N/A   Overcast
8:06 AM 23.0°F 17.6°F 80% 30.23 in 9.0 miles West 3.5 mph - N/A   Overcast
8:53 AM 23.0°F 17.1°F 78% 30.32 in 10.0 miles NNW 4.6 mph - N/A   Overcast
9:53 AM 23.0°F 17.1°F 78% 30.33 in 10.0 miles NNW 5.8 mph - N/A   Overcast
10:53 AM 23.0°F 17.1°F 78% 30.33 in 10.0 miles NNW 4.6 mph - N/A   Overcast
11:53 AM 21.9°F 16.0°F 78% 30.33 in 10.0 miles NNW 3.5 mph - N/A   Overcast
12:53 PM 21.9°F 15.1°F 75% 30.33 in 10.0 miles North 4.6 mph - N/A   Overcast
1:53 PM 21.9°F 15.1°F 75% 30.34 in 10.0 miles NNW 4.6 mph - N/A   Overcast
2:53 PM 21.9°F 15.1°F 75% 30.35 in 10.0 miles Calm Calm - N/A   Mostly Cloudy
3:53 PM 23.0°F 15.1°F 72% 30.34 in 10.0 miles Calm Calm - N/A   Scattered Clouds
4:53 PM 21.2°F 14.0°F 74% 30.28 in 10.0 miles Calm Calm - N/A   Partly Cloudy
5:53 PM 18.0°F 12.0°F 78% 30.37 in 10.0 miles Calm Calm - N/A   Clear
6:53 PM 15.1°F 10.9°F 84% 30.38 in 8.0 miles Calm Calm - N/A   Clear
7:53 PM 16.0°F 10.9°F 81% 30.37 in 9.0 miles Calm Calm - N/A   Clear
8:28 PM 15.8°F 10.4°F 79% 30.28 in 7.0 miles Calm Calm - N/A   Scattered Clouds
8:53 PM 15.1°F 10.9°F 84% 30.38 in 7.0 miles SW 6.9 mph - N/A   Mostly Cloudy
9:53 PM 17.1°F 12.0°F 81% 30.38 in 7.0 miles Calm Calm - N/A   Overcast
10:53 PM 17.1°F 12.9°F 84% 30.38 in 6.0 miles Calm Calm - N/A   Overcast
11:53 PM 18.0°F 14.0°F 84% 30.37 in 6.0 miles Calm Calm - N/A   Overcast
Moon Phase
Jan. 12 Jan. 18 Jan. 26 Feb. 03 Feb. 10
Sunrise:07:34 AM (PST) Moon Rise:07:49 AM (PST)1/12
Sunset:04:21 PM (PST) Moon Set:06:05 PM (PST)1/12

Copyright © 2014 The Weather Underground, Inc.